EXS65NA EGBB-LDDU

Flight info

Callsign EXS65NA
Flight time 2h 25m
Altitude 37000
Route ADMEX Y321 EMKUK UL612 COWLY Q70 BIG L15 MOTOX DCT RUCAC DCT LESDO DCT ETINO DCT BEGAR DCT TRA DCT GAMSA N871 MADEB M738 TIRUL DCT DIRAB DCT MONFA DCT SPL/N0336F190 L607 SIPAL
Aircraft B738/M-SDE2E3FGHIRWXY/LB1

Departure

Time 2026-04-28 08:43
Airport Birmingham Airport (EGBB)

Arrival

Time 2026-04-28 11:09
Airport Dubrovnik Ruđer Bošković Airport (LDDU)
Time Latitude Longitude Altitude Speed Heading
2026-04-28 08:37 52.45000 -1.73274 342 ft 0 kts 236°
2026-04-28 08:38 52.44997 -1.73279 342 ft 1 kts 236°
2026-04-28 08:38 52.44989 -1.73301 343 ft 3 kts 236°
2026-04-28 08:39 52.44970 -1.73347 342 ft 6 kts 234°
2026-04-28 08:39 52.44940 -1.73417 342 ft 8 kts 241°
2026-04-28 08:39 52.44913 -1.73524 342 ft 11 kts 240°
2026-04-28 08:39 52.44863 -1.73641 343 ft 13 kts 236°
2026-04-28 08:40 52.44789 -1.73708 343 ft 12 kts 197°
2026-04-28 08:40 52.44711 -1.73728 343 ft 10 kts 159°
2026-04-28 08:40 52.44649 -1.73664 343 ft 10 kts 146°
2026-04-28 08:40 52.44594 -1.73603 343 ft 9 kts 146°
2026-04-28 08:41 52.44543 -1.73546 343 ft 8 kts 146°
2026-04-28 08:41 52.44491 -1.73489 342 ft 9 kts 145°
2026-04-28 08:41 52.44434 -1.73425 342 ft 10 kts 145°
2026-04-28 08:41 52.44372 -1.73441 342 ft 10 kts 230°
2026-04-28 08:42 52.44325 -1.73542 343 ft 11 kts 234°
2026-04-28 08:42 52.44320 -1.73622 342 ft 6 kts 332°
2026-04-28 08:42 52.44332 -1.73634 343 ft 0 kts 325°
2026-04-28 08:42 52.44347 -1.73651 342 ft 9 kts 326°
2026-04-28 08:43 52.44585 -1.73913 343 ft 74 kts 326°
2026-04-28 08:43 52.45174 -1.74566 343 ft 129 kts 326°
2026-04-28 08:43 52.46035 -1.75530 476 ft 160 kts 330°
2026-04-28 08:43 52.46949 -1.76548 990 ft 161 kts 333°
2026-04-28 08:44 52.47881 -1.77557 1591 ft 161 kts 335°
2026-04-28 08:44 52.48835 -1.78584 2067 ft 170 kts 335°
2026-04-28 08:44 52.49867 -1.79652 2487 ft 178 kts 344°
2026-04-28 08:44 52.50988 -1.79986 2600 ft 164 kts 16°
2026-04-28 08:45 52.52103 -1.79386 2901 ft 174 kts 31°
2026-04-28 08:45 52.53128 -1.78260 3273 ft 184 kts 47°
2026-04-28 08:45 52.53796 -1.76412 3665 ft 196 kts 74°
2026-04-28 08:45 52.53900 -1.74129 4200 ft 206 kts 92°
2026-04-28 08:46 52.53630 -1.71802 4773 ft 212 kts 99°
2026-04-28 08:46 52.53283 -1.69458 5395 ft 214 kts 99°
2026-04-28 08:46 52.52824 -1.67113 6028 ft 220 kts 112°
2026-04-28 08:46 52.51872 -1.65094 6682 ft 228 kts 130°
2026-04-28 08:47 52.50655 -1.63292 7078 ft 243 kts 131°
2026-04-28 08:47 52.49374 -1.61360 7467 ft 256 kts 130°
2026-04-28 08:47 52.48080 -1.59310 7933 ft 266 kts 129°
2026-04-28 08:47 52.46734 -1.57140 8548 ft 270 kts 130°
2026-04-28 08:48 52.45255 -1.55129 9158 ft 279 kts 139°
2026-04-28 08:48 52.43599 -1.53428 9791 ft 285 kts 143°
2026-04-28 08:48 52.41869 -1.51817 10426 ft 289 kts 143°
2026-04-28 08:48 52.40105 -1.50162 10878 ft 300 kts 142°
2026-04-28 08:49 52.38258 -1.48375 11269 ft 313 kts 142°
2026-04-28 08:49 52.36332 -1.46601 11617 ft 330 kts 148°
2026-04-28 08:49 52.34117 -1.45335 12019 ft 349 kts 160°
2026-04-28 08:49 52.31683 -1.44569 12644 ft 358 kts 165°
2026-04-28 08:50 52.29185 -1.43975 13314 ft 362 kts 166°
2026-04-28 08:50 52.26628 -1.43386 14021 ft 366 kts 165°
2026-04-28 08:50 52.24067 -1.42757 14703 ft 370 kts 164°
2026-04-28 08:50 52.21526 -1.42091 15363 ft 374 kts 163°
2026-04-28 08:51 52.18946 -1.41387 16058 ft 377 kts 163°
2026-04-28 08:51 52.16317 -1.40655 16724 ft 381 kts 163°
2026-04-28 08:51 52.13699 -1.39916 17336 ft 386 kts 162°
2026-04-28 08:51 52.10911 -1.39128 18082 ft 388 kts 162°
2026-04-28 08:52 52.08169 -1.38354 18713 ft 392 kts 162°
2026-04-28 08:52 52.05430 -1.37580 19317 ft 396 kts 162°
2026-04-28 08:52 52.02599 -1.36780 19896 ft 400 kts 162°
2026-04-28 08:52 51.99809 -1.35886 20489 ft 401 kts 159°
2026-04-28 08:53 51.97081 -1.34626 21163 ft 397 kts 153°
2026-04-28 08:53 51.94423 -1.32912 21713 ft 397 kts 148°
2026-04-28 08:53 51.91870 -1.30974 22361 ft 397 kts 145°
2026-04-28 08:53 51.89281 -1.28874 22922 ft 400 kts 144°
2026-04-28 08:54 51.86700 -1.26735 23489 ft 403 kts 144°
2026-04-28 08:54 51.84431 -1.24860 24081 ft 403 kts 144°
2026-04-28 08:54 51.81803 -1.22702 24524 ft 408 kts 144°
2026-04-28 08:54 51.79377 -1.20723 24951 ft 411 kts 144°
2026-04-28 08:55 51.76777 -1.18615 25316 ft 416 kts 144°
2026-04-28 08:55 51.74205 -1.16543 25753 ft 418 kts 145°
2026-04-28 08:55 51.71592 -1.14446 26048 ft 424 kts 145°
2026-04-28 08:55 51.68940 -1.12324 26543 ft 423 kts 144°
2026-04-28 08:56 51.66466 -1.10142 26810 ft 424 kts 140°
2026-04-28 08:56 51.64074 -1.07334 27210 ft 415 kts 130°
2026-04-28 08:56 51.62089 -1.04054 27623 ft 406 kts 122°
2026-04-28 08:56 51.60457 -1.00434 27926 ft 403 kts 114°
2026-04-28 08:57 51.59100 -0.96541 28235 ft 401 kts 109°
2026-04-28 08:57 51.57910 -0.92431 28521 ft 403 kts 106°
2026-04-28 08:57 51.56833 -0.88306 28834 ft 404 kts 105°
2026-04-28 08:57 51.55790 -0.84142 29114 ft 407 kts 105°
2026-04-28 08:58 51.54732 -0.79881 29397 ft 411 kts 105°
2026-04-28 08:58 51.53678 -0.75647 29717 ft 412 kts 105°
2026-04-28 08:58 51.52593 -0.71325 29876 ft 419 kts 106°
2026-04-28 08:58 51.51497 -0.67004 30227 ft 420 kts 106°
2026-04-28 08:59 51.50391 -0.62680 30654 ft 419 kts 106°
2026-04-28 08:59 51.49291 -0.58406 30930 ft 420 kts 107°
2026-04-28 08:59 51.48160 -0.54029 31296 ft 421 kts 107°
2026-04-28 08:59 51.47041 -0.49708 31603 ft 421 kts 107°
2026-04-28 09:00 51.45922 -0.45401 31921 ft 422 kts 107°
2026-04-28 09:00 51.44790 -0.41052 32243 ft 422 kts 107°
2026-04-28 09:00 51.43643 -0.36653 32508 ft 424 kts 108°
2026-04-28 09:00 51.42508 -0.32309 32808 ft 424 kts 109°
2026-04-28 09:01 51.41363 -0.27941 33059 ft 426 kts 109°
2026-04-28 09:01 51.40219 -0.23577 33315 ft 428 kts 109°
2026-04-28 09:01 51.39068 -0.19199 33606 ft 428 kts 109°
2026-04-28 09:01 51.37899 -0.14758 33889 ft 429 kts 109°
2026-04-28 09:02 51.36747 -0.10390 34167 ft 429 kts 109°
2026-04-28 09:02 51.35585 -0.05996 34483 ft 428 kts 109°
2026-04-28 09:02 51.34433 -0.01647 34775 ft 428 kts 110°
2026-04-28 09:02 51.33266 0.02754 35026 ft 429 kts 110°
2026-04-28 09:03 51.32114 0.07146 35270 ft 429 kts 109°
2026-04-28 09:03 51.30980 0.11575 35516 ft 429 kts 109°
2026-04-28 09:03 51.29863 0.15992 35734 ft 430 kts 109°
2026-04-28 09:03 51.28756 0.20381 35935 ft 431 kts 109°
2026-04-28 09:04 51.27634 0.24824 36141 ft 432 kts 109°
2026-04-28 09:04 51.26510 0.29261 36369 ft 432 kts 109°
2026-04-28 09:04 51.25372 0.33739 36596 ft 432 kts 109°
2026-04-28 09:04 51.24248 0.38141 36782 ft 433 kts 109°
2026-04-28 09:05 51.23108 0.42597 36968 ft 434 kts 109°
2026-04-28 09:05 51.21965 0.47049 37135 ft 434 kts 110°
2026-04-28 09:05 51.20828 0.51470 37251 ft 436 kts 110°
2026-04-28 09:06 51.18521 0.60402 37257 ft 436 kts 110°
2026-04-28 09:06 51.16208 0.69313 37249 ft 435 kts 110°
2026-04-28 09:07 51.13908 0.78145 37234 ft 434 kts 110°
2026-04-28 09:07 51.11599 0.86978 37226 ft 435 kts 111°
2026-04-28 09:08 51.09249 0.95939 37239 ft 442 kts 111°
2026-04-28 09:08 51.06864 1.04991 37226 ft 450 kts 111°
2026-04-28 09:09 51.04448 1.14116 37220 ft 448 kts 111°
2026-04-28 09:09 51.02023 1.23232 37229 ft 448 kts 111°
2026-04-28 09:10 50.99597 1.32317 37220 ft 447 kts 111°
2026-04-28 09:10 50.97174 1.41362 37214 ft 447 kts 111°
2026-04-28 09:11 50.94746 1.50387 37213 ft 449 kts 111°
2026-04-28 09:11 50.92286 1.59491 37201 ft 448 kts 111°
2026-04-28 09:12 50.89803 1.68484 37193 ft 449 kts 114°
2026-04-28 09:12 50.86527 1.76807 37205 ft 450 kts 129°
2026-04-28 09:13 50.82184 1.83951 37200 ft 452 kts 135°
2026-04-28 09:13 50.77609 1.90706 37181 ft 452 kts 136°
2026-04-28 09:14 50.72993 1.97456 37175 ft 452 kts 136°
2026-04-28 09:14 50.68397 2.04225 37173 ft 452 kts 136°
2026-04-28 09:15 50.63847 2.10966 37169 ft 452 kts 136°
2026-04-28 09:15 50.59266 2.17771 37167 ft 452 kts 136°
2026-04-28 09:16 50.54699 2.24550 37155 ft 454 kts 136°
2026-04-28 09:16 50.50117 2.31336 37160 ft 454 kts 136°
2026-04-28 09:17 50.45513 2.38139 37152 ft 455 kts 136°
2026-04-28 09:17 50.40905 2.44934 37141 ft 456 kts 136°
2026-04-28 09:18 50.36268 2.51749 37144 ft 457 kts 136°
2026-04-28 09:18 50.31649 2.58516 37138 ft 456 kts 137°
2026-04-28 09:19 50.27112 2.65144 37135 ft 455 kts 137°
2026-04-28 09:19 50.22472 2.71905 37129 ft 456 kts 138°
2026-04-28 09:20 50.17838 2.78638 37130 ft 455 kts 138°
2026-04-28 09:20 50.13222 2.85326 37128 ft 455 kts 138°
2026-04-28 09:21 50.08564 2.92058 37119 ft 456 kts 138°
2026-04-28 09:21 50.03959 2.98696 36958 ft 455 kts 138°
2026-04-28 09:21 50.01650 3.02019 37109 ft 455 kts 138°
2026-04-28 09:22 49.99309 3.05381 37117 ft 458 kts 139°
2026-04-28 09:22 49.94614 3.12113 37110 ft 459 kts 139°
2026-04-28 09:23 49.89979 3.18740 37106 ft 457 kts 139°
2026-04-28 09:23 49.85269 3.25451 37103 ft 458 kts 139°
2026-04-28 09:24 49.80641 3.32249 37096 ft 459 kts 134°
2026-04-28 09:24 49.76468 3.39751 37094 ft 459 kts 130°
2026-04-28 09:25 49.72522 3.47519 37091 ft 461 kts 129°
2026-04-28 09:25 49.68601 3.55305 37089 ft 461 kts 129°
2026-04-28 09:26 49.64649 3.63056 37084 ft 461 kts 129°
2026-04-28 09:26 49.60646 3.70816 37081 ft 462 kts 130°
2026-04-28 09:27 49.54658 3.82328 37074 ft 460 kts 131°
2026-04-28 09:27 49.50612 3.90064 37085 ft 462 kts 131°
2026-04-28 09:28 49.46573 3.97759 37075 ft 462 kts 131°
2026-04-28 09:28 49.42544 4.05411 37076 ft 461 kts 131°
2026-04-28 09:29 49.38541 4.13000 37070 ft 461 kts 131°
2026-04-28 09:29 49.34498 4.20636 37064 ft 461 kts 131°
2026-04-28 09:30 49.30445 4.28270 37062 ft 462 kts 131°
2026-04-28 09:30 49.26399 4.35870 37070 ft 462 kts 131°
2026-04-28 09:31 49.22340 4.43473 37054 ft 463 kts 131°
2026-04-28 09:31 49.18281 4.51052 37052 ft 463 kts 131°
2026-04-28 09:32 49.14209 4.58634 37052 ft 463 kts 131°
2026-04-28 09:32 49.10136 4.66197 37042 ft 463 kts 133°
2026-04-28 09:33 49.06051 4.73762 37047 ft 463 kts 133°
2026-04-28 09:33 49.01926 4.81378 37042 ft 463 kts 133°
2026-04-28 09:34 48.97827 4.88922 37037 ft 464 kts 133°
2026-04-28 09:34 48.93735 4.96432 37032 ft 465 kts 133°
2026-04-28 09:35 48.89658 5.04030 37039 ft 466 kts 130°
2026-04-28 09:35 48.86098 5.12301 37042 ft 469 kts 123°
2026-04-28 09:36 48.82877 5.20903 37031 ft 472 kts 122°
2026-04-28 09:36 48.79725 5.29582 37033 ft 472 kts 121°
2026-04-28 09:37 48.76546 5.38270 37039 ft 472 kts 122°
2026-04-28 09:37 48.73368 5.46839 37048 ft 472 kts 122°
2026-04-28 09:38 48.70155 5.55427 37043 ft 472 kts 122°
2026-04-28 09:38 48.66893 5.64088 37041 ft 472 kts 122°
2026-04-28 09:39 48.63646 5.72678 37039 ft 473 kts 123°
2026-04-28 09:39 48.60369 5.81311 37050 ft 473 kts 123°
2026-04-28 09:40 48.57102 5.89888 37048 ft 473 kts 123°
2026-04-28 09:40 48.53823 5.98478 37043 ft 474 kts 123°
2026-04-28 09:41 48.50534 6.07063 37039 ft 474 kts 123°
2026-04-28 09:41 48.47237 6.15638 37034 ft 475 kts 123°
2026-04-28 09:42 48.43945 6.24174 37034 ft 475 kts 124°
2026-04-28 09:42 48.40606 6.32810 37042 ft 476 kts 123°
2026-04-28 09:43 48.37273 6.41405 37036 ft 474 kts 124°
2026-04-28 09:43 48.33954 6.49927 37037 ft 477 kts 124°
2026-04-28 09:44 48.30592 6.58536 37036 ft 475 kts 123°
2026-04-28 09:44 48.27246 6.67075 37028 ft 476 kts 124°
2026-04-28 09:45 48.23901 6.75587 37029 ft 475 kts 124°
2026-04-28 09:45 48.20596 6.83970 37027 ft 476 kts 124°
2026-04-28 09:46 48.17231 6.92475 37025 ft 476 kts 124°
2026-04-28 09:46 48.13838 7.01021 37027 ft 478 kts 124°
2026-04-28 09:47 48.10442 7.09548 37037 ft 478 kts 124°
2026-04-28 09:47 48.07041 7.18064 37038 ft 478 kts 124°
2026-04-28 09:48 48.03640 7.26555 37031 ft 478 kts 124°
2026-04-28 09:48 48.00229 7.35045 37028 ft 478 kts 124°
2026-04-28 09:49 47.96793 7.43566 37019 ft 479 kts 124°
2026-04-28 09:49 47.93378 7.52007 37013 ft 479 kts 124°
2026-04-28 09:50 47.90214 7.60772 37016 ft 483 kts 117°
2026-04-28 09:50 47.87662 7.70058 37021 ft 485 kts 114°
2026-04-28 09:51 47.85327 7.79469 37023 ft 486 kts 113°
2026-04-28 09:51 47.83019 7.88844 37029 ft 485 kts 113°
2026-04-28 09:52 47.80666 7.98233 37035 ft 486 kts 113°
2026-04-28 09:52 47.78281 8.07607 37038 ft 485 kts 113°
2026-04-28 09:53 47.75880 8.16944 37041 ft 486 kts 113°
2026-04-28 09:53 47.73454 8.26322 37042 ft 486 kts 113°
2026-04-28 09:54 47.71072 8.35488 37042 ft 486 kts 113°
2026-04-28 09:54 47.68607 8.44964 37047 ft 487 kts 112°
2026-04-28 09:55 47.66355 8.54426 37043 ft 488 kts 110°
2026-04-28 09:55 47.64250 8.63929 37045 ft 489 kts 109°
2026-04-28 09:56 47.62148 8.73440 37045 ft 488 kts 110°
2026-04-28 09:56 47.60017 8.82922 37048 ft 488 kts 110°
2026-04-28 09:57 47.57837 8.92486 37046 ft 487 kts 111°
2026-04-28 09:57 47.55661 9.01937 37042 ft 489 kts 110°
2026-04-28 09:58 47.53455 9.11460 37061 ft 489 kts 110°
2026-04-28 09:58 47.51263 9.20884 37051 ft 489 kts 110°
2026-04-28 09:59 47.49042 9.30397 37056 ft 489 kts 110°
2026-04-28 09:59 47.46824 9.39847 37049 ft 488 kts 110°
2026-04-28 10:00 47.44574 9.49395 37052 ft 489 kts 110°
2026-04-28 10:00 47.42328 9.58881 37055 ft 489 kts 110°
2026-04-28 10:01 47.39788 9.67984 37058 ft 487 kts 119°
2026-04-28 10:01 47.36509 9.76815 37084 ft 486 kts 123°
2026-04-28 10:02 47.32995 9.85478 37100 ft 485 kts 123°
2026-04-28 10:02 47.29522 9.93964 37116 ft 487 kts 123°
2026-04-28 10:03 47.26043 10.02533 37124 ft 486 kts 123°
2026-04-28 10:03 47.22533 10.11236 37131 ft 487 kts 123°
2026-04-28 10:04 47.19044 10.19894 37143 ft 487 kts 123°
2026-04-28 10:04 47.15570 10.28513 37143 ft 488 kts 122°
2026-04-28 10:05 47.12107 10.37081 37140 ft 486 kts 122°
2026-04-28 10:05 47.08645 10.45616 37141 ft 487 kts 122°
2026-04-28 10:06 47.05146 10.54205 37149 ft 487 kts 123°
2026-04-28 10:06 47.01449 10.62655 37153 ft 485 kts 125°
2026-04-28 10:07 46.97727 10.70739 37162 ft 483 kts 126°
2026-04-28 10:07 46.93901 10.78988 37158 ft 485 kts 127°
2026-04-28 10:08 46.90083 10.87253 37167 ft 485 kts 126°
2026-04-28 10:08 46.86299 10.95472 37166 ft 484 kts 126°
2026-04-28 10:09 46.82525 11.03673 37165 ft 486 kts 126°
2026-04-28 10:09 46.78535 11.11558 37160 ft 484 kts 131°
2026-04-28 10:10 46.74193 11.19083 37160 ft 483 kts 133°
2026-04-28 10:10 46.69803 11.26491 37167 ft 484 kts 133°
2026-04-28 10:11 46.65409 11.33929 37146 ft 483 kts 133°
2026-04-28 10:11 46.61042 11.41372 37142 ft 484 kts 133°
2026-04-28 10:12 46.56689 11.48817 37135 ft 484 kts 133°
2026-04-28 10:12 46.52322 11.56282 37124 ft 483 kts 132°
2026-04-28 10:13 46.47993 11.63668 37132 ft 485 kts 132°
2026-04-28 10:13 46.43621 11.71115 37123 ft 483 kts 133°
2026-04-28 10:14 46.39265 11.78511 37113 ft 485 kts 133°
2026-04-28 10:14 46.34891 11.85917 37109 ft 484 kts 133°
2026-04-28 10:15 46.30514 11.93307 37107 ft 483 kts 133°
2026-04-28 10:15 46.26136 12.00678 37096 ft 482 kts 133°
2026-04-28 10:16 46.21759 12.08028 37098 ft 483 kts 133°
2026-04-28 10:16 46.17366 12.15384 37085 ft 483 kts 133°
2026-04-28 10:17 46.12992 12.22693 37083 ft 483 kts 133°
2026-04-28 10:17 46.08601 12.30008 37078 ft 482 kts 133°
2026-04-28 10:18 46.04198 12.37321 37069 ft 482 kts 133°
2026-04-28 10:18 45.99795 12.44615 37059 ft 484 kts 133°
2026-04-28 10:19 45.95378 12.51914 37048 ft 483 kts 133°
2026-04-28 10:19 45.90991 12.59144 37046 ft 482 kts 133°
2026-04-28 10:20 45.86866 12.65928 37044 ft 482 kts 134°
2026-04-28 10:20 45.82398 12.73255 37045 ft 482 kts 133°
2026-04-28 10:21 45.78009 12.80435 37042 ft 481 kts 133°
2026-04-28 10:21 45.73593 12.87637 37040 ft 481 kts 134°
2026-04-28 10:22 45.69197 12.94789 37035 ft 481 kts 134°
2026-04-28 10:22 45.64787 13.01947 37034 ft 480 kts 134°
2026-04-28 10:23 45.60357 13.09119 37031 ft 480 kts 134°
2026-04-28 10:23 45.55936 13.16258 37034 ft 481 kts 133°
2026-04-28 10:24 45.51530 13.23350 37038 ft 481 kts 133°
2026-04-28 10:24 45.47110 13.30449 37042 ft 480 kts 133°
2026-04-28 10:25 45.42678 13.37548 37043 ft 480 kts 133°
2026-04-28 10:25 45.38247 13.44631 37044 ft 480 kts 133°
2026-04-28 10:26 45.33820 13.51687 37047 ft 480 kts 133°
2026-04-28 10:26 45.29378 13.58748 37047 ft 480 kts 133°
2026-04-28 10:27 45.25057 13.65602 37051 ft 480 kts 134°
2026-04-28 10:27 45.20607 13.72644 37052 ft 479 kts 134°
2026-04-28 10:28 45.16157 13.79667 37047 ft 480 kts 134°
2026-04-28 10:29 45.09467 13.90187 37050 ft 480 kts 134°
2026-04-28 10:29 45.05015 13.97168 37047 ft 480 kts 134°
2026-04-28 10:30 45.00562 14.04135 37048 ft 480 kts 134°
2026-04-28 10:30 44.96092 14.11110 37049 ft 481 kts 134°
2026-04-28 10:31 44.91626 14.18061 37043 ft 480 kts 134°
2026-04-28 10:31 44.87256 14.24844 37038 ft 480 kts 134°
2026-04-28 10:32 44.82782 14.31774 37040 ft 480 kts 134°
2026-04-28 10:32 44.78302 14.38696 37039 ft 479 kts 134°
2026-04-28 10:33 44.73815 14.45610 37031 ft 479 kts 134°
2026-04-28 10:33 44.69334 14.52498 37034 ft 479 kts 134°
2026-04-28 10:34 44.64842 14.59385 37034 ft 478 kts 133°
2026-04-28 10:34 44.60356 14.66246 37038 ft 478 kts 134°
2026-04-28 10:35 44.55930 14.73000 37036 ft 478 kts 134°
2026-04-28 10:35 44.51431 14.79847 37036 ft 478 kts 134°
2026-04-28 10:36 44.46920 14.86696 37039 ft 479 kts 134°
2026-04-28 10:36 44.42411 14.93524 37035 ft 478 kts 134°
2026-04-28 10:37 44.37902 15.00338 37033 ft 478 kts 134°
2026-04-28 10:37 44.33403 15.07120 37044 ft 478 kts 134°
2026-04-28 10:38 44.28887 15.13910 37045 ft 478 kts 134°
2026-04-28 10:38 44.24343 15.20726 37042 ft 477 kts 134°
2026-04-28 10:39 44.19842 15.27458 37048 ft 476 kts 134°
2026-04-28 10:39 44.15344 15.34172 37052 ft 478 kts 134°
2026-04-28 10:40 44.10794 15.40946 37043 ft 478 kts 134°
2026-04-28 10:40 44.06277 15.47657 37045 ft 477 kts 134°
2026-04-28 10:41 44.01755 15.54359 37049 ft 478 kts 134°
2026-04-28 10:41 43.97220 15.61062 37048 ft 477 kts 134°
2026-04-28 10:42 43.92696 15.67734 37051 ft 477 kts 135°
2026-04-28 10:42 43.88128 15.74453 37046 ft 477 kts 135°
2026-04-28 10:43 43.83570 15.81141 37045 ft 478 kts 135°
2026-04-28 10:43 43.79017 15.87809 37046 ft 476 kts 135°
2026-04-28 10:44 43.74466 15.94458 37027 ft 472 kts 135°
2026-04-28 10:44 43.72160 15.97823 36621 ft 466 kts 135°
2026-04-28 10:44 43.69901 16.01114 36293 ft 459 kts 135°
2026-04-28 10:44 43.67593 16.04471 35742 ft 457 kts 135°
2026-04-28 10:45 43.65376 16.07691 35038 ft 461 kts 135°
2026-04-28 10:45 43.63155 16.10912 34194 ft 466 kts 134°
2026-04-28 10:45 43.60923 16.14144 33409 ft 467 kts 134°
2026-04-28 10:45 43.58701 16.17358 32660 ft 468 kts 134°
2026-04-28 10:46 43.56440 16.20629 31892 ft 469 kts 134°
2026-04-28 10:46 43.54226 16.23827 31127 ft 469 kts 134°
2026-04-28 10:46 43.51982 16.27077 30355 ft 470 kts 133°
2026-04-28 10:46 43.49865 16.30462 29916 ft 462 kts 128°
2026-04-28 10:47 43.47961 16.33977 29419 ft 456 kts 124°
2026-04-28 10:47 43.46189 16.37566 28902 ft 452 kts 123°
2026-04-28 10:47 43.44486 16.41198 28374 ft 447 kts 122°
2026-04-28 10:47 43.42848 16.44775 27855 ft 443 kts 121°
2026-04-28 10:48 43.41214 16.48371 27330 ft 439 kts 121°
2026-04-28 10:48 43.39616 16.51885 26816 ft 434 kts 121°
2026-04-28 10:48 43.38016 16.55384 26302 ft 430 kts 121°
2026-04-28 10:48 43.36433 16.58827 25793 ft 426 kts 122°
2026-04-28 10:49 43.34855 16.62243 25285 ft 422 kts 122°
2026-04-28 10:49 43.33271 16.65654 24765 ft 418 kts 122°
2026-04-28 10:49 43.31717 16.68991 24258 ft 414 kts 122°
2026-04-28 10:49 43.30154 16.72337 23746 ft 410 kts 123°
2026-04-28 10:50 43.28608 16.75637 23243 ft 406 kts 123°
2026-04-28 10:50 43.27068 16.78920 22729 ft 402 kts 123°
2026-04-28 10:50 43.25560 16.82128 22237 ft 399 kts 123°
2026-04-28 10:50 43.24045 16.85349 21729 ft 395 kts 123°
2026-04-28 10:51 43.22523 16.88580 21217 ft 395 kts 123°
2026-04-28 10:51 43.22233 16.89196 21128 ft 395 kts 123°
2026-04-28 10:52 43.21708 16.90308 20965 ft 396 kts 123°
2026-04-28 10:52 43.20670 16.92512 20597 ft 398 kts 123°
2026-04-28 10:52 43.19103 16.95831 20074 ft 395 kts 122°
2026-04-28 10:52 43.18903 16.96255 20002 ft 395 kts 122°
2026-04-28 10:53 43.17556 16.99106 19537 ft 392 kts 122°
2026-04-28 10:53 43.16100 17.02183 19051 ft 388 kts 122°
2026-04-28 10:54 43.15155 17.04179 18720 ft 386 kts 122°
2026-04-28 10:55 43.13799 17.07043 18212 ft 383 kts 122°
2026-04-28 10:55 43.12251 17.10275 17692 ft 379 kts 123°
2026-04-28 10:55 43.10701 17.13452 17168 ft 375 kts 123°
2026-04-28 10:55 43.09134 17.16634 16653 ft 371 kts 123°
2026-04-28 10:56 43.07613 17.19713 16120 ft 369 kts 123°
2026-04-28 10:56 43.06151 17.22677 15599 ft 366 kts 123°
2026-04-28 10:56 43.04726 17.25566 15086 ft 363 kts 123°
2026-04-28 10:56 43.03319 17.28421 14592 ft 360 kts 123°
2026-04-28 10:57 43.01910 17.31279 14097 ft 357 kts 123°
2026-04-28 10:57 43.00540 17.34057 13589 ft 354 kts 123°
2026-04-28 10:57 42.99172 17.36830 13113 ft 350 kts 123°
2026-04-28 10:57 42.97819 17.39570 12640 ft 348 kts 123°
2026-04-28 10:58 42.96482 17.42275 12141 ft 345 kts 123°
2026-04-28 10:58 42.95150 17.44971 11689 ft 342 kts 123°
2026-04-28 10:58 42.93817 17.47662 11182 ft 339 kts 124°
2026-04-28 10:58 42.92506 17.50309 10722 ft 336 kts 124°
2026-04-28 10:59 42.91219 17.52902 10493 ft 325 kts 124°
2026-04-28 10:59 42.89891 17.55274 10338 ft 313 kts 130°
2026-04-28 10:59 42.88420 17.57448 10196 ft 301 kts 134°
2026-04-28 10:59 42.86976 17.59418 10026 ft 291 kts 135°
2026-04-28 11:00 42.85530 17.61359 9720 ft 288 kts 135°
2026-04-28 11:00 42.84098 17.63299 9324 ft 287 kts 135°
2026-04-28 11:00 42.82679 17.65248 8938 ft 286 kts 135°
2026-04-28 11:00 42.81280 17.67185 8586 ft 283 kts 135°
2026-04-28 11:01 42.79894 17.69110 8215 ft 281 kts 135°
2026-04-28 11:01 42.78419 17.71162 7870 ft 278 kts 135°
2026-04-28 11:01 42.77128 17.73261 7462 ft 278 kts 124°
2026-04-28 11:01 42.76132 17.75595 7131 ft 276 kts 118°
2026-04-28 11:02 42.75253 17.77980 6771 ft 275 kts 117°
2026-04-28 11:02 42.74419 17.80261 6590 ft 265 kts 117°
2026-04-28 11:02 42.73600 17.82437 6523 ft 253 kts 118°
2026-04-28 11:02 42.72789 17.84536 6470 ft 242 kts 118°
2026-04-28 11:03 42.72012 17.86523 6365 ft 234 kts 118°
2026-04-28 11:03 42.71243 17.88484 6079 ft 236 kts 118°
2026-04-28 11:03 42.70462 17.90474 5783 ft 236 kts 118°
2026-04-28 11:03 42.69680 17.92468 5506 ft 235 kts 118°
2026-04-28 11:04 42.68888 17.94488 5234 ft 232 kts 118°
2026-04-28 11:04 42.68120 17.96446 4947 ft 230 kts 119°
2026-04-28 11:04 42.67319 17.98485 4666 ft 227 kts 119°
2026-04-28 11:04 42.66522 18.00533 4443 ft 222 kts 117°
2026-04-28 11:05 42.65793 18.02540 4150 ft 220 kts 117°
2026-04-28 11:05 42.65078 18.04442 3822 ft 218 kts 119°
2026-04-28 11:05 42.64351 18.06229 3539 ft 214 kts 121°
2026-04-28 11:05 42.63588 18.08033 3244 ft 210 kts 120°
2026-04-28 11:06 42.62883 18.09798 2952 ft 196 kts 118°
2026-04-28 11:06 42.62237 18.11459 2691 ft 181 kts 119°
2026-04-28 11:06 42.61604 18.13057 2444 ft 164 kts 120°
2026-04-28 11:06 42.61066 18.14413 2175 ft 154 kts 120°
2026-04-28 11:07 42.60555 18.15702 1996 ft 151 kts 120°
2026-04-28 11:07 42.60053 18.16969 1791 ft 149 kts 120°
2026-04-28 11:07 42.59541 18.18257 1596 ft 149 kts 121°
2026-04-28 11:07 42.59036 18.19502 1398 ft 148 kts 121°
2026-04-28 11:08 42.58548 18.20733 1214 ft 146 kts 121°
2026-04-28 11:08 42.58071 18.21937 987 ft 146 kts 121°
2026-04-28 11:08 42.57596 18.23143 804 ft 143 kts 121°
2026-04-28 11:08 42.57126 18.24331 628 ft 142 kts 121°
2026-04-28 11:09 42.56665 18.25490 523 ft 132 kts 120°
2026-04-28 11:09 42.56319 18.26352 523 ft 78 kts 116°
2026-04-28 11:09 42.56136 18.26825 523 ft 39 kts 118°
2026-04-28 11:09 42.56004 18.27156 523 ft 40 kts 118°
2026-04-28 11:10 42.55880 18.27330 518 ft 17 kts 171°
2026-04-28 11:10 42.55793 18.27336 517 ft 8 kts 198°
2026-04-28 11:10 42.55771 18.27285 518 ft 7 kts 279°
2026-04-28 11:10 42.55793 18.27220 519 ft 6 kts 297°
2026-04-28 11:11 42.55813 18.27169 521 ft 5 kts 298°
2026-04-28 11:11 42.55832 18.27121 522 ft 5 kts 298°
2026-04-28 11:11 42.55859 18.27054 522 ft 10 kts 297°
2026-04-28 11:11 42.55904 18.26939 522 ft 15 kts 297°
2026-04-28 11:12 42.55967 18.26779 522 ft 18 kts 298°
2026-04-28 11:12 42.56022 18.26642 522 ft 10 kts 299°
2026-04-28 11:12 42.56027 18.26589 522 ft 4 kts 227°
2026-04-28 11:12 42.56000 18.26566 522 ft 3 kts 208°
2026-04-28 11:13 42.55987 18.26557 522 ft 0 kts 208°